Location: Biltmore Gardens
(41.6070°N, 83.4666°W)
Time: 14:11:20
(UTC+00:00)

Cosmos 1536 - Pass Details

Date: 14 July 2020
Orbit: 539 x 559 km, 82.5° (Epoch: 04 August)

Event Time Altitude Azimuth Distance (km) Brightness Sun altitude
Exits shadow 08:25:56 29° 241° (WSW) 1,031 3.7 -16.0°
Maximum altitude 08:27:15 38° 282° (WNW) 865 3.6 -15.9°
Drops below altitude 10° 08:31:03 10° 352° (N) 1,846 6.1 -15.4°
Sets 08:33:21 0° 0° (N) 2,743 7.2 -15.1°
